Wind_Speed
9 9 8 8 9 9 10 9 9 9 8 7 7 6 5 5 4 4 5 5 6 8 6 8 6 8 14 9 4 4 3 6 8 8 9 9 5 11 9 8 7 9 7 12 14
5 6 7 8 8 9 9 9 9 10 9 8 8 7 7 8 6 5 5 5 6 7 8 14 15 17 12 13 12 7 5 4 7 7 9 8 7 6 8 7 5 2 5 13 15
2 2 3 4 5 6 6 7 7 7 7 7 8 9 9 9 8 7 7 4 6 9 14 14 13 9 8 8 9 8 4 6 6 7 9 6 6 6 7 5 2 8 8 13 14
3 2 2 1 2 3 4 4 4 4 4 5 7 8 11 10 6 11 8 7 16 17 13 12 10 10 6 10 11 5 6 4 6 8 6 5 4 4 3 6 6 8 10 9 12
3 2 2 1 1 3 3 3 3 3 4 5 7 10 11 12 10 12 10 9 12 13 11 10 9 8 7 7 10 6 5 3 9 6 4 3 6 2 1 5 8 6 10 10 10
3 3 2 1 0 2 3 4 4 4 5 6 8 11 12 11 12 13 12 10 9 9 8 8 9 9 7 6 10 7 7 3 7 5 5 3 3 3 2 1 5 5 7 8 7
1 2 3 2 2 1 2 4 5 6 6 6 9 12 14 13 13 13 12 10 8 8 9 9 7 6 4 4 7 11 7 8 3 6 3 3 3 1 4 2 1 3 2 5 6
1 2 3 3 4 4 4 3 5 7 8 9 10 14 12 11 13 12 12 10 8 8 8 8 4 2 3 4 3 6 7 7 10 7 5 2 6 3 3 3 1 0 1 3 5
2 1 2 3 4 5 6 7 6 8 9 11 13 13 11 12 14 13 13 11 11 9 7 8 5 4 3 1 1 3 4 8 5 5 4 4 2 5 3 3 7 4 2 3 6
2 1 1 1 3 4 5 5 7 9 11 12 12 9 9 13 15 15 14 14 12 12 8 7 5 4 5 1 2 3 3 2 5 1 5 2 2 6 1 4 7 10 6 6 5
2 1 0 0 2 2 4 6 7 9 11 12 13 10 14 13 12 12 14 14 13 13 10 8 8 10 6 3 4 2 4 4 4 7 7 5 4 4 5 6 9 9 9 6 7
4 3 2 1 1 2 3 5 7 11 7 9 10 9 9 12 8 9 11 8 12 11 13 9 12 10 6 5 6 6 8 9 8 4 8 8 6 4 7 2 5 7 10 7 9
6 5 2 2 2 2 4 6 12 16 11 15 15 12 12 11 10 7 6 7 8 10 12 10 8 9 8 8 9 10 12 10 9 11 12 12 11 5 6 4 3 8 12 12 12
10 8 6 4 4 4 6 14 21 17 10 9 8 7 11 13 8 10 7 9 6 10 9 9 7 7 7 10 8 12 7 10 12 12 12 3 9 3 7 7 7 4 6 11 14
12 12 10 8 7 7 10 24 22 13 6 9 7 13 15 6 13 7 9 7 7 8 11 7 4 5 6 8 6 9 9 10 13 15 17 17 12 12 8 10 9 10 10 7 11
12 12 12 12 10 9 12 27 21 5 4 8 8 7 9 7 11 10 6 5 7 6 7 7 6 3 5 5 8 8 10 12 13 15 21 22 22 17 13 9 5 3 5 8 13
11 11 13 13 12 11 14 26 12 9 8 8 10 10 11 10 11 8 7 5 4 5 4 4 4 5 4 4 5 6 10 12 10 11 13 12 15 17 6 7 7 4 1 3 4
10 11 13 14 12 12 15 20 11 5 11 11 14 13 9 10 8 7 6 4 4 3 4 8 7 5 4 2 4 6 6 10 7 9 4 2 8 12 13 6 8 9 9 8 8
9 10 13 14 14 14 19 17 12 8 12 16 14 10 9 10 7 6 6 5 3 5 3 4 6 7 9 7 4 3 6 4 11 14 13 14 10 10 9 6 1 3 10 14 10
8 10 13 14 15 17 15 14 8 11 13 16 12 11 10 9 7 7 6 6 3 6 4 4 6 6 9 8 8 8 7 7 9 5 8 6 8 14 17 7 6 7 10 18 18
8 9 14 14 15 17 14 11 10 16 14 14 11 10 9 8 7 7 6 5 6 2 1 3 5 3 4 7 8 8 9 11 11 11 9 8 5 6 6 7 12 13 16 21 23
9 7 14 15 12 15 12 10 13 18 19 15 10 9 8 8 6 5 6 5 6 3 2 3 5 10 9 10 11 12 11 12 16 10 14 15 22 8 6 8 15 21 22 23 27
16 11 17 14 9 11 14 15 14 14 13 11 9 8 9 8 3 5 7 5 4 2 3 4 5 9 7 7 7 10 12 11 13 14 18 18 13 6 6 18 21 24 27 29 35
15 11 17 16 14 12 13 14 16 18 15 11 9 9 8 5 4 6 7 4 5 5 8 9 10 15 18 12 7 14 15 15 16 19 20 30 27 27 28 26 26 26 26 26 26
19 17 17 15 12 12 15 13 14 14 14 13 9 8 8 5 5 5 7 6 8 11 10 6 12 14 17 18 18 20 22 24 26 26 29 33 33 29 28 31 30 25 24 26 29
19 17 18 13 15 15 15 13 14 14 12 12 8 10 9 7 6 7 6 7 8 7 7 9 12 12 17 17 19 24 24 25 28 29 33 32 38 29 27 23 24 24 23 25 26
12 16 16 17 14 14 14 13 13 12 13 12 10 9 8 8 5 4 5 6 7 8 10 11 9 10 15 8 12 17 21 23 26 25 26 30 29 27 28 26 26 26 26 27 27
Wind_Direction
247 251 258 261 266 268 267 265 266 264 261 255 254 245 200 188 184 139 97 86 107 116 97 77 72 85 75 88 131 117 128 124 126 128 143 108 97 51 52 76 107 141 139 185 178
260 253 253 258 260 263 264 263 262 263 259 250 238 229 209 185 178 171 144 91 110 102 97 92 102 101 82 71 71 141 127 110 144 142 144 123 124 63 72 92 47 72 181 169 181
306 274 249 251 257 258 256 257 253 255 250 237 225 214 205 182 175 189 164 109 117 114 107 99 96 88 64 75 77 97 128 147 119 151 143 152 134 88 99 42 345 97 140 155 168
323 312 283 238 228 242 239 238 232 221 215 207 202 194 193 177 179 187 167 121 117 126 106 100 87 75 34 66 68 45 72 171 145 143 108 130 136 104 130 41 47 108 122 142 164
319 314 305 284 245 230 237 224 211 197 179 186 184 182 179 177 189 178 171 152 133 130 116 97 103 55 64 49 58 58 50 137 163 144 147 90 108 113 28 36 47 89 123 147 163
335 353 1 352 266 221 220 222 204 189 173 173 174 175 168 177 185 178 175 167 157 147 121 108 96 91 54 55 59 55 62 107 164 195 166 25 349 16 309 346 40 70 123 157 175
34 42 47 47 66 122 187 196 190 182 172 166 168 166 160 182 182 180 183 177 177 176 159 139 105 50 28 12 54 61 52 62 181 202 226 20 342 294 244 230 84 40 115 168 188
34 70 70 74 85 91 94 131 161 172 166 162 162 164 177 180 179 187 188 192 198 199 182 173 152 65 56 38 43 34 59 69 72 93 47 171 79 80 157 170 200 264 222 205 187
333 38 74 93 96 98 101 103 113 146 155 156 156 156 172 182 184 189 195 200 210 218 204 194 209 210 306 2 47 47 93 83 58 64 56 133 312 350 40 185 198 211 248 212 202
284 347 42 92 110 113 120 121 114 124 141 143 149 143 185 188 196 201 204 206 214 217 230 215 224 219 249 271 272 19 63 71 39 324 28 304 275 281 325 252 209 206 213 214 212
241 247 301 64 126 128 134 135 123 137 151 162 170 181 183 188 199 208 214 220 216 213 212 224 216 238 217 224 251 294 290 322 341 325 357 336 312 246 273 230 217 217 216 212 206
234 239 244 260 181 157 154 164 161 158 137 153 160 161 181 193 181 203 211 209 214 207 203 228 233 221 224 242 247 270 284 283 290 308 321 305 314 267 232 205 192 219 222 221 204
229 223 221 229 220 191 164 154 156 147 125 135 135 128 128 121 155 172 162 190 182 195 202 215 210 225 232 260 261 259 262 277 278 290 300 300 283 235 232 234 236 240 222 216 217
233 227 221 224 209 179 164 155 152 133 135 150 149 152 143 131 133 133 148 147 165 184 172 196 219 214 243 246 251 263 256 267 279 289 275 241 276 248 231 242 249 231 234 233 230
241 233 223 220 210 187 176 164 160 148 197 176 185 169 155 156 152 129 112 93 157 173 170 199 182 219 232 238 263 253 281 275 267 264 269 256 250 253 255 245 256 253 238 245 251
239 232 222 213 205 194 179 173 172 200 160 166 163 154 168 158 172 150 139 135 120 108 142 163 194 184 219 240 252 273 287 274 264 257 252 250 252 256 241 249 209 129 226 245 245
236 227 215 209 203 189 181 179 185 236 183 166 167 146 158 153 162 150 150 151 162 175 161 165 206 205 210 256 274 306 270 259 236 223 250 256 231 238 239 208 198 214 89 218 260
236 222 209 203 198 189 175 178 217 203 176 172 157 151 167 147 159 160 152 151 186 192 194 220 194 202 240 212 251 287 267 289 276 274 259 112 241 237 207 175 225 238 241 242 254
224 221 207 198 194 186 171 192 214 194 192 166 159 172 172 179 172 169 173 193 199 193 245 225 225 231 237 245 257 264 245 254 284 261 264 254 226 240 204 207 342 325 253 243 245
222 206 209 200 192 183 184 207 210 183 167 173 183 181 184 185 185 190 192 191 172 205 203 257 267 233 249 272 260 220 235 250 219 262 255 233 238 246 196 244 315 306 293 251 247
211 190 197 195 188 183 197 211 193 188 163 177 192 178 183 178 186 200 201 203 204 254 250 233 249 228 264 240 237 252 248 239 264 255 285 272 252 191 206 288 304 290 307 278 261
195 182 194 187 177 192 208 191 181 179 179 185 171 178 188 172 175 180 186 197 190 182 216 233 245 260 263 261 261 239 244 231 248 228 247 276 270 270 248 295 313 270 292 301 281
194 188 184 180 189 194 202 192 172 175 177 177 179 178 167 163 158 161 169 195 193 156 209 283 255 263 227 253 249 222 230 232 243 254 251 264 245 232 275 307 308 292 284 282 277
187 190 194 194 193 182 182 183 186 181 186 181 187 172 169 168 163 185 190 219 273 249 282 283 260 250 272 307 289 231 239 241 249 260 264 252 267 266 288 295 304 307 301 295 290
187 193 182 200 193 183 176 186 189 192 197 195 194 194 191 200 196 197 201 228 269 273 280 244 262 262 264 264 260 256 253 253 253 256 258 270 275 277 286 297 299 298 301 296 292
195 196 200 206 193 180 184 180 186 193 189 206 204 205 208 215 211 222 227 243 249 258 241 265 277 272 273 269 263 264 261 259 257 259 264 272 275 284 291 290 295 299 302 301 290
186 198 201 200 191 178 195 184 186 191 205 202 209 205 199 204 205 217 230 249 248 248 262 259 274 276 280 266 277 272 272 261 262 262 267 272 281 285 285 288 290 291 294 300 293
Height
3169 3169 3170 3171 3171 3172 3172 3172 3172 3172 3173 3173 3173 3174 3176 3177 3177 3178 3179 3179 3178 3178 3178 3178 3178 3178 3178 3178 3179 3180 3184 3183 3184 3186 3186 3187 3188 3186 3186 3185 3186 3186 3189 3190 3191
3167 3167 3168 3168 3170 3170 3170 3170 3170 3170 3170 3171 3172 3173 3175 3176 3178 3178 3180 3179 3179 3180 3179 3179 3180 3180 3181 3180 3179 3180 3185 3184 3184 3185 3188 3188 3191 3189 3189 3188 3187 3187 3187 3189 3193
3166 3166 3167 3167 3167 3168 3168 3168 3168 3168 3168 3169 3170 3172 3174 3176 3178 3178 3180 3180 3179 3180 3181 3181 3182 3182 3182 3181 3182 3182 3184 3183 3185 3186 3188 3190 3191 3191 3193 3193 3191 3188 3189 3190 3194
3165 3165 3166 3166 3166 3166 3166 3167 3167 3167 3167 3168 3169 3170 3173 3176 3182 3178 3180 3181 3180 3182 3183 3184 3184 3185 3187 3185 3184 3187 3184 3184 3185 3187 3190 3191 3192 3193 3194 3193 3191 3190 3191 3193 3195
3165 3165 3165 3165 3165 3166 3165 3166 3166 3166 3167 3167 3168 3170 3173 3176 3177 3178 3180 3182 3182 3183 3184 3185 3186 3187 3189 3187 3186 3188 3185 3183 3185 3189 3191 3192 3192 3194 3194 3193 3192 3192 3192 3194 3197
3165 3165 3164 3164 3164 3164 3164 3164 3165 3166 3166 3167 3168 3170 3173 3178 3177 3178 3180 3182 3183 3185 3186 3187 3187 3188 3189 3189 3187 3188 3186 3185 3186 3189 3190 3191 3193 3193 3194 3194 3194 3193 3194 3195 3197
3164 3164 3164 3164 3164 3163 3163 3164 3164 3165 3166 3167 3169 3171 3174 3176 3176 3178 3180 3182 3183 3184 3186 3187 3187 3190 3190 3190 3188 3186 3189 3186 3187 3189 3191 3192 3193 3194 3193 3194 3194 3194 3195 3196 3197
3164 3164 3164 3164 3164 3164 3163 3163 3163 3164 3165 3167 3169 3172 3174 3175 3176 3178 3179 3181 3183 3184 3186 3187 3188 3190 3191 3190 3189 3190 3191 3191 3189 3190 3192 3193 3194 3192 3193 3194 3195 3195 3196 3197 3198
3164 3164 3164 3164 3165 3165 3164 3164 3164 3165 3166 3168 3170 3172 3175 3176 3177 3178 3180 3182 3183 3184 3186 3188 3189 3191 3191 3192 3192 3192 3193 3193 3194 3192 3192 3194 3194 3194 3194 3194 3194 3195 3196 3197 3198
3164 3164 3164 3164 3165 3165 3165 3165 3166 3166 3167 3169 3171 3176 3175 3176 3176 3178 3179 3181 3183 3185 3187 3189 3191 3192 3191 3192 3190 3192 3192 3194 3194 3195 3192 3194 3195 3193 3192 3194 3195 3195 3195 3196 3197
3164 3164 3164 3164 3164 3165 3165 3166 3170 3170 3169 3169 3172 3172 3173 3175 3177 3178 3178 3180 3182 3185 3188 3188 3192 3190 3191 3191 3191 3192 3193 3193 3194 3192 3192 3194 3194 3194 3191 3192 3194 3194 3195 3196 3197
3163 3163 3163 3163 3164 3164 3164 3165 3166 3169 3171 3170 3171 3172 3172 3174 3177 3177 3178 3181 3182 3185 3186 3189 3189 3188 3189 3190 3192 3192 3192 3192 3193 3192 3192 3193 3193 3192 3192 3191 3192 3193 3194 3195 3196
3161 3162 3162 3162 3163 3163 3163 3164 3166 3167 3173 3173 3173 3173 3174 3176 3177 3177 3178 3178 3182 3183 3185 3187 3187 3185 3188 3190 3191 3191 3191 3191 3192 3191 3190 3190 3189 3190 3190 3191 3191 3191 3193 3194 3195
3159 3160 3161 3161 3163 3162 3163 3164 3166 3169 3174 3177 3176 3176 3176 3176 3178 3177 3176 3180 3181 3184 3185 3186 3184 3186 3187 3189 3189 3189 3188 3189 3190 3191 3189 3190 3186 3188 3190 3189 3190 3190 3190 3192 3193
3156 3157 3158 3159 3160 3161 3163 3164 3167 3169 3167 3176 3175 3174 3176 3178 3179 3179 3178 3180 3182 3181 3183 3184 3185 3186 3187 3187 3186 3188 3186 3187 3188 3188 3188 3188 3189 3184 3187 3188 3189 3189 3190 3191 3192
3152 3153 3155 3157 3158 3160 3161 3164 3168 3172 3167 3172 3173 3175 3177 3178 3178 3179 3180 3180 3180 3182 3182 3183 3183 3184 3185 3184 3184 3184 3185 3185 3184 3185 3181 3181 3182 3181 3182 3185 3186 3187 3189 3190 3190
3148 3149 3152 3154 3156 3157 3159 3164 3171 3165 3168 3171 3172 3174 3176 3178 3178 3179 3180 3181 3182 3184 3183 3184 3184 3183 3184 3185 3184 3184 3184 3179 3176 3174 3171 3171 3174 3177 3181 3181 3181 3181 3183 3184 3186
3145 3146 3148 3151 3153 3156 3158 3165 3165 3163 3166 3167 3170 3173 3175 3177 3177 3178 3180 3181 3181 3182 3182 3182 3183 3184 3182 3184 3184 3184 3184 3178 3170 3164 3165 3173 3173 3174 3178 3175 3176 3177 3178 3180 3181
3142 3144 3146 3148 3150 3154 3158 3162 3161 3163 3164 3166 3170 3172 3174 3174 3177 3178 3179 3180 3179 3180 3183 3181 3181 3180 3180 3181 3184 3183 3183 3181 3180 3175 3175 3169 3170 3173 3175 3174 3173 3174 3174 3175 3176
3140 3141 3144 3146 3148 3152 3157 3158 3158 3159 3161 3165 3167 3170 3172 3173 3175 3176 3177 3177 3178 3177 3179 3181 3181 3179 3179 3179 3179 3180 3180 3180 3178 3173 3167 3160 3167 3168 3168 3170 3171 3171 3170 3170 3171
3137 3140 3141 3143 3147 3151 3154 3156 3156 3156 3160 3165 3166 3167 3170 3171 3173 3174 3176 3175 3175 3176 3177 3179 3180 3179 3178 3178 3178 3178 3177 3178 3176 3173 3165 3160 3160 3162 3165 3166 3165 3166 3165 3164 3164
3135 3140 3138 3141 3148 3147 3152 3153 3153 3155 3158 3160 3164 3166 3168 3169 3171 3172 3173 3174 3173 3175 3178 3176 3177 3176 3176 3174 3172 3173 3174 3174 3171 3169 3169 3167 3163 3163 3162 3163 3162 3159 3160 3159 3156
3133 3135 3138 3140 3146 3147 3147 3150 3153 3156 3159 3161 3162 3164 3165 3168 3170 3171 3171 3171 3172 3174 3176 3176 3174 3172 3170 3173 3169 3170 3171 3171 3170 3169 3165 3164 3158 3157 3160 3160 3158 3156 3155 3153 3151
3132 3136 3137 3139 3140 3144 3146 3149 3151 3153 3156 3158 3160 3163 3164 3166 3167 3169 3170 3169 3169 3171 3171 3171 3171 3171 3167 3165 3168 3168 3168 3168 3168 3165 3160 3154 3156 3156 3157 3155 3152 3149 3148 3146 3144
3128 3130 3133 3136 3140 3141 3145 3147 3150 3152 3154 3157 3160 3162 3164 3165 3166 3167 3168 3167 3166 3166 3166 3168 3167 3167 3165 3164 3164 3164 3163 3162 3161 3160 3158 3151 3150 3153 3153 3149 3145 3142 3140 3139 3136
3126 3128 3131 3134 3137 3141 3143 3146 3149 3149 3153 3156 3159 3160 3161 3163 3164 3165 3165 3165 3166 3163 3164 3164 3163 3162 3160 3159 3158 3156 3156 3155 3154 3154 3150 3150 3144 3149 3147 3143 3141 3137 3134 3132 3130
3123 3126 3130 3132 3135 3140 3142 3144 3146 3148 3151 3153 3156 3158 3159 3160 3160 3161 3161 3161 3161 3161 3162 3162 3161 3160 3156 3155 3155 3152 3148 3148 3147 3147 3147 3143 3142 3141 3138 3135 3133 3131 3127 3124 3123